CW1035 Weather Reports


Display with metric or nautical units.
time (UTC)temp
F
wind
direction
speed
MPH
gust
MPH
rain 1hr
in
rain 24hr
in
rain mn
in
humidity
%
barometer
mb
20260505022702 63 247 0.0 12.0 0.00 0.00 0.00 67 1009.9
20260505022201 63 262 5.0 12.0 0.00 0.00 0.00 66 1009.9
20260505021701 63 238 4.0 14.0 0.00 0.00 0.00 65 1009.9
20260505021201 63 278 5.0 14.0 0.00 0.00 0.00 65 1010.0
20260505020701 64 236 3.0 13.0 0.00 0.00 0.00 64 1010.0
20260505015701 65 263 3.0 16.0 0.00 0.00 0.00 64 1010.1
20260505015200 65 255 4.0 16.0 0.00 0.00 0.00 64 1010.1
20260505014200 66 311 6.0 15.0 0.00 0.00 0.00 63 1010.1
20260505013701 66 248 7.0 13.0 0.00 0.00 0.00 61 1010.1
20260505013200 66 266 4.0 14.0 0.00 0.00 0.00 62 1010.2
20260505012700 66 264 7.0 14.0 0.00 0.00 0.00 61 1010.2
20260505012200 67 290 4.0 15.0 0.00 0.00 0.00 61 1010.2
20260505011200 67 277 9.0 14.0 0.00 0.00 0.00 61 1010.3
20260505010700 67 344 9.0 17.0 0.00 0.00 0.00 61 1010.4
20260505010200 67 307 8.0 17.0 0.00 0.00 0.00 60 1010.4
20260505005700 67 318 8.0 16.0 0.00 0.00 0.00 60 1010.4
20260505005159 67 298 2.0 20.0 0.00 0.00 0.00 60 1010.4
20260505004659 67 151 3.0 20.0 0.00 0.00 0.00 61 1010.4
20260505004159 68 289 5.0 14.0 0.00 0.00 0.00 60 1010.4
20260505003700 68 273 8.0 15.0 0.00 0.00 0.00 61 1010.4
20260505003159 68 249 3.0 19.0 0.00 0.00 0.00 60 1010.7
20260505002700 68 281 5.0 19.0 0.00 0.00 0.00 59 1010.6
20260505002200 69 288 4.0 10.0 0.00 0.00 0.00 59 1010.6
20260505001659 69 258 4.0 11.0 0.00 0.00 0.00 59 1010.8
20260505001159 68 285 4.0 12.0 0.00 0.00 0.00 59 1010.7
20260505000659 68 234 4.0 12.0 0.00 0.00 0.00 59 1010.6
20260505000159 68 281 3.0 13.0 0.00 0.00 0.00 59 1010.6
20260504235659 68 293 5.0 13.0 0.00 0.00 0.00 59 1010.7
20260504235159 68 259 4.0 12.0 0.00 0.00 0.00 58 1010.6
20260504234659 68 246 3.0 11.0 0.00 0.00 0.00 58 1010.7
20260504234158 68 292 6.0 11.0 0.00 0.00 0.00 57 1010.7
20260504233658 68 322 8.0 12.0 0.00 0.00 0.00 57 1010.7
20260504233158 68 271 4.0 14.0 0.00 0.00 0.00 57 1010.7
20260504232659 68 259 7.0 14.0 0.00 0.00 0.00 56 1010.7
20260504232158 68 259 5.0 12.0 0.00 0.00 0.00 56 1010.6
20260504231658 68 304 5.0 12.0 0.00 0.00 0.00 57 1010.6
20260504231158 68 276 4.0 12.0 0.00 0.00 0.00 56 1010.7
20260504230658 67 271 6.0 12.0 0.00 0.00 0.00 57 1010.6
20260504230158 67 256 9.0 12.0 0.00 0.00 0.00 57 1010.7
20260504225657 67 320 4.0 11.0 0.00 0.00 0.00 59 1011.0
20260504225157 66 269 5.0 10.0 0.00 0.00 0.00 59 1010.8
20260504224657 66 292 6.0 13.0 0.00 0.00 0.00 60 1010.9
20260504224157 66 279 6.0 13.0 0.00 0.00 0.00 59 1010.9
20260504223658 66 284 4.0 12.0 0.00 0.00 0.00 59 1010.9
20260504223158 67 269 8.0 11.0 0.00 0.00 0.00 58 1011.0
20260504222657 67 288 6.0 11.0 0.00 0.00 0.00 58 1010.9
20260504222157 67 320 4.0 11.0 0.00 0.00 0.00 58 1011.0
20260504221657 68 264 5.0 9.0 0.00 0.00 0.00 57 1011.1
20260504221157 68 283 3.0 7.0 0.00 0.00 0.00 58 1011.1
20260504220657 68 344 2.0 7.0 0.00 0.00 0.00 58 1011.1
20260504220157 68 1 7.0 7.0 0.00 0.00 0.00 57 1011.1
20260504215656 68 290 5.0 6.0 0.00 0.00 0.00 58 1011.0
20260504215156 68 274 5.0 6.0 0.00 0.00 0.00 58 1011.0
20260504214656 67 292 4.0 8.0 0.00 0.00 0.00 59 1011.1
20260504214156 66 295 4.0 8.0 0.00 0.00 0.00 59 1011.2
20260504213156 65 274 4.0 9.0 0.00 0.00 0.00 60 1011.4
20260504212656 66 257 7.0 9.0 0.00 0.00 0.00 58 1011.5
20260504212156 68 279 6.0 9.0 0.00 0.00 0.00 58 1011.5
20260504211656 67 295 5.0 9.0 0.00 0.00 0.00 59 1011.5
20260504211156 67 298 3.0 10.0 0.00 0.00 0.00 59 1011.3
20260504210655 68 270 6.0 10.0 0.00 0.00 0.00 59 1011.4
20260504210156 70 261 7.0 8.0 0.00 0.00 0.00 55 1011.4
20260504205656 71 287 4.0 8.0 0.00 0.00 0.00 53 1011.6
20260504205156 71 309 3.0 7.0 0.00 0.00 0.00 50 1011.5
20260504204655 71 269 1.0 7.0 0.00 0.00 0.00 48 1011.5
20260504204155 71 255 2.0 6.0 0.00 0.00 0.00 49 1011.5
20260504203656 71 311 3.0 6.0 0.00 0.00 0.00 48 1011.5
20260504203155 70 329 2.0 6.0 0.00 0.00 0.00 50 1011.5
20260504202655 71 271 3.0 6.0 0.00 0.00 0.00 49 1011.5
20260504202155 70 75 2.0 6.0 0.00 0.00 0.00 50 1011.5
20260504201655 69 316 1.0 6.0 0.00 0.00 0.00 52 1011.4
20260504201155 69 281 2.0 7.0 0.00 0.00 0.00 52 1011.5
20260504200654 69 6 3.0 7.0 0.00 0.00 0.00 50 1011.5
20260504200155 69 316 3.0 7.0 0.00 0.00 0.00 54 1011.5
20260504195155 69 239 4.0 8.0 0.00 0.00 0.00 52 1011.5
20260504194154 69 330 3.0 7.0 0.00 0.00 0.00 54 1011.5
20260504193654 69 337 3.0 7.0 0.00 0.00 0.00 53 1011.5
20260504193154 69 272 5.0 7.0 0.00 0.00 0.00 55 1011.6
20260504191654 69 34 0.0 7.0 0.00 0.00 0.00 55 1011.6
20260504191154 69 340 3.0 7.0 0.00 0.00 0.00 54 1011.5
20260504190154 68 358 3.0 6.0 0.00 0.00 0.00 55 1011.5
20260504185653 68 302 4.0 6.0 0.00 0.00 0.00 56 1011.6
20260504185154 68 256 4.0 6.0 0.00 0.00 0.00 57 1011.6
20260504184653 68 306 3.0 4.0 0.00 0.00 0.00 58 1011.6
20260504182653 65 310 2.0 6.0 0.00 0.00 0.00 60 1011.7
20260504182153 65 281 2.0 6.0 0.00 0.00 0.00 60 1011.7
20260504181653 64 270 5.0 6.0 0.00 0.00 0.00 62 1011.8
20260504181153 64 247 3.0 7.0 0.00 0.00 0.00 62 1011.8
20260504180653 64 266 3.0 7.0 0.00 0.00 0.00 62 1011.9
20260504175653 64 308 4.0 6.0 0.00 0.00 0.00 62 1011.8
20260504175152 64 288 4.0 6.0 0.00 0.00 0.00 62 1011.7
20260504174652 64 271 2.0 7.0 0.00 0.00 0.00 62 1011.7
20260504174153 64 285 3.0 7.0 0.00 0.00 0.00 63 1011.7
20260504173652 64 279 3.0 6.0 0.00 0.00 0.00 64 1011.7
20260504173152 64 288 6.0 6.0 0.00 0.00 0.00 63 1011.7
20260504172652 63 296 0.0 6.0 0.00 0.00 0.00 64 1011.6
20260504172152 63 285 2.0 5.0 0.00 0.00 0.00 64 1011.6
20260504171152 63 266 0.0 5.0 0.00 0.00 0.00 65 1011.6
20260504170152 62 262 0.0 5.0 0.00 0.00 0.00 66 1011.7
20260504151150 61 260 1.0 4.0 0.00 0.00 0.00 66 1011.2
20260504150149 60 267 0.0 3.0 0.00 0.00 0.00 66 1011.1
20260504141148 61 267 0.0 0.0 0.00 0.00 0.00 66 1010.7
20260504140648 60 267 0.0 0.0 0.00 0.00 0.00 64 1010.8
20260504140148 59 267 0.0 0.0 0.00 0.00 0.00 63 1010.7
20260504130147 59 267 0.0 2.0 0.00 0.00 0.00 59 1010.3
20260504120146 59 347 0.0 0.0 0.00 0.00 0.00 62 1010.3
20260504110645 58 347 0.0 0.0 0.00 0.00 0.00 64 1010.4
20260504110145 58 347 0.0 0.0 0.00 0.00 0.00 64 1010.4
20260504100144 57 347 0.0 0.0 0.00 0.00 0.00 70 1010.4
20260504081642 59 307 0.0 1.0 0.00 0.00 0.00 64 1010.0
20260504081142 59 306 0.0 1.0 0.00 0.00 0.00 62 1010.0
20260504080142 59 307 0.0 0.0 0.00 0.00 0.00 61 1010.0
20260504070211 64 263 0.0 0.0 0.00 0.00 0.00 50 1010.2
20260504060140 63 243 2.0 5.0 0.00 0.00 0.00 52 1010.2
20260504050639 66 269 3.0 4.0 0.00 0.00 0.00 44 1010.5
20260504050139 67 259 2.0 4.0 0.00 0.00 0.00 45 1010.5
20260504045638 67 268 1.0 4.0 0.00 0.00 0.00 45 1010.4
20260504045139 67 259 2.0 4.0 0.00 0.00 0.00 45 1010.4
20260504044639 66 255 3.0 4.0 0.00 0.00 0.00 45 1010.3
20260504044138 66 253 1.0 4.0 0.00 0.00 0.00 47 1010.3
20260504043638 66 273 4.0 4.0 0.00 0.00 0.00 47 1010.4
20260504043138 67 252 2.0 4.0 0.00 0.00 0.00 47 1010.4
20260504042638 67 278 2.0 4.0 0.00 0.00 0.00 45 1010.3
20260504041638 67 259 0.0 0.0 0.00 0.00 0.00 45 1010.3
20260504041138 68 257 0.0 3.0 0.00 0.00 0.00 46 1010.4
20260504040637 68 257 0.0 5.0 0.00 0.00 0.00 45 1010.4
20260504040138 68 264 1.0 5.0 0.00 0.00 0.00 45 1010.4
20260504035637 68 255 3.0 3.0 0.00 0.00 0.00 44 1010.3
20260504035137 68 264 2.0 3.0 0.00 0.00 0.00 43 1010.3
20260504034637 69 272 0.0 3.0 0.00 0.00 0.00 43 1010.3
20260504034137 69 262 0.0 3.0 0.00 0.00 0.00 42 1010.2
20260504033637 69 277 0.0 0.0 0.00 0.00 0.00 42 1010.2
20260504033137 70 271 0.0 2.0 0.00 0.00 0.00 41 1010.2
20260504032637 70 264 0.0 2.0 0.00 0.00 0.00 41 1010.2
20260504031637 71 293 2.0 3.0 0.00 0.00 0.00 41 1010.2
20260504030637 72 256 0.0 2.0 0.00 0.00 0.00 39 1010.2
20260504030207 72 255 1.0 3.0 0.00 0.00 0.00 38 1010.2
20260504025707 73 256 0.0 3.0 0.00 0.00 0.00 37 1010.2
20260504025136 73 269 0.0 4.0 0.00 0.00 0.00 37 1010.2
20260504024636 73 281 0.0 4.0 0.00 0.00 0.00 38 1010.3
20260504024207 74 272 0.0 5.0 0.00 0.00 0.00 38 1010.4
20260504023706 74 310 3.0 5.0 0.00 0.00 0.00 38 1010.4
20260504023207 74 278 0.0 4.0 0.00 0.00 0.00 38 1010.4